Tracking 32139 objects as of 18-Nov-2025
HD Live streaming from Space Station
objects crossing your sky now

STARLINK-30423

Track STARLINK-30423 now!
10-day predictions
STARLINK-30423 is classified as:


NORAD ID: 57843
Int'l Code: 2023-141D
Perigee: 481.3 km
Apogee: 483.5 km
Inclination: 53.2 °
Period: 94.1 minutes
Semi major axis: 6853 km
RCS: Unknown
Launch date: September 12, 2023
Source: United States (US)
Launch site: AIR FORCE WESTERN TEST RANGE (AFWTR)
Your satellite tracking list
Your tracking list is empty




NASA's NSSDC Master Catalog

Two Line Element Set (TLE):
1 57843U 23141D   25321.73400535 -.00000230  00000-0  43852-5 0  9991
2 57843  53.1612  84.1810 0001595  99.5180 260.6001 15.30187500123181
Source of the keplerian elements: AFSPC